"Pseudo-MPEC" for C2F0MK2

Created 2020 Mar 28 5:07:05 UT using Find_Orb

Click here for an explanation of pseudo-MPECs

 
 Astrometry: 
     C2F0MK2  C2020 03 25.33116 12 49 24.16 +14 07 59.6    ~3P8b 20.7 GVNEOCPG96
     C2F0MK2  C2020 03 25.33641 12 49 23.84 +14 08 08.1    ~3P8b       VNEOCPG96
     C2F0MK2  C2020 03 25.34168 12 49 23.57 +14 08 16.2    ~3P8b 21.1 GVNEOCPG96
     C2F0MK2  C2020 03 25.34694 12 49 23.26 +14 08 24.8    ~3P8b 20.9 GVNEOCPG96
     C2F0MK2  C2020 03 25.43982 12 49 18.52 +14 10 51.7    ~3PAq 21.3 GVNEOCPI52
     C2F0MK2  C2020 03 25.44108 12 49 18.47 +14 10 53.8    ~3PAq 20.7 GVNEOCPI52
     C2F0MK2  C2020 03 25.44357 12 49 18.33 +14 10 57.1    ~3PAq 21.7 GVNEOCPI52
     C2F0MK2 KC2020 03 26g=(j1+-Q-3p5SFuu*KMv9`FN@ic-k'j[luBw(Vm)Astrometry2]H21
     C2F0MK2 KC2020 03 266XX8Tc[9redacted;WAclick9_b)hereIoN*90P4,M=b@uWj-j)aH21
     C2F0MK2 KC2020 03 26S!forCF2_qhtP=$i'T$3'explanationuPO%3?2#NV#K5iap*[!:H21
     C2F0MK2  C2020 03 27.93788 12 47 17.05 +15 15 55.7    ~3RN7 19.4 VVNEOCP033
     C2F0MK2  C2020 03 27.94146 12 47 16.88 +15 16 01.0    ~3RN7 19.4 VVNEOCP033
     C2F0MK2  C2020 03 27.94505 12 47 16.73 +15 16 07.0    ~3RN7 19.6 VVNEOCP033

Station data:
(033) Karl Schwarzschild Observatory, Tautenburg  (N50.980140 E11.711240)
   Germany. 1.3-m Schmidt.
(G96) Mt. Lemmon Survey  (N32.442754 W110.788720)  US/Arizona.  Observers T.
   A. Pruyne, B. M. Africano, E. J. Christensen, G. A. Farneth, D. C. Fuls,
   A. R. Gibbs, A. D. Grauer, H. Gröller, J. A. Johnson, R. A. Kowalski, S.
   M. Larson, G. J. Leonard, D. Rankin, R. L. Seaman, F. C. Shelly. 1.5-m
   reflector + 10K CCD.
(H21) Astronomical Research Observatory, Westfield  (N39.483057 W87.968270)
   US/Illinois. 0.76-m f/3.0 astrograph + CCD.
(I52) Steward Observatory, Mt. Lemmon Station  (N32.442547 W110.788920)
   US/Arizona.  Observers T. A. Pruyne, B. M. Africano, E. J. Christensen, G.
   A. Farneth, D. C. Fuls, A. R. Gibbs, A. D. Grauer, H. Gröller, J. A.
   Johnson, R. A. Kowalski, S. M. Larson, G. J. Leonard, D. Rankin, R. L.
   Seaman, F. C. Shelly. 1.0-m reflector + CCD.

Orbital elements:  C2F0MK2
   Perihelion 2020 Sep 6.881209 +/- 11.7 TT = 21:08:56 (JD 2459099.381209)
Epoch 2020 Mar 27.0 TT = JDT 2458935.5   Earth MOID: 0.8487   AutoNEOCP
M 296.68712109 +/- 4.5              (J2000 ecliptic)
n   0.38633397 +/- 0.007            Peri.   89.15209 +/- 5.6
a   1.86707077 +/- 0.0225           Node   165.43300 +/- 0.52
e   0.0364112 +/- 0.00864           Incl.   23.28763 +/- 0.8
P   2.55/931.82d           H 19.2   G  0.15   U  9.4  
q 1.79908837 +/- 0.0315    Q 1.93505317 +/- 0.0224
From 13 observations 2020 Mar. 25-27; mean residual 0".26
Residuals in arcseconds: 
200325 G96  .67+  .04+    200325 I52  .12+  .14+    200327 033  .34-  .01-    
200325 G96  .04-  .20+    200325 I52  .07-  .49-    200327 033  .09-  .23-    
200325 G96  .01-  .07-    200326 H21  .18-  .11+    200327 033  .45+  .24+    
200325 G96  .56-  .17+    200326 H21  .11+  .28-    
200325 I52  .09-  .03+    200326 H21  .04+  .20+    

Ephemerides (geocentric):
Date (UTC) HH   RA              Dec         delta   r     elong  mag " sig PA
---- -- -- --  -------------   -----------  ------ ------ -----  --- ---- ---
2020 03 28 05  12 47 03.535   +15 22 57.03  .86531 1.8381 161.0 20.9 .214 107
2020 03 28 06  12 47 01.466   +15 24 00.88  .86534 1.8380 161.0 20.9 .225 103
2020 03 28 07  12 46 59.397   +15 25 04.68  .86537 1.8380 160.9 20.9 .237  99
2020 03 28 08  12 46 57.326   +15 26 08.44  .86540 1.8380 160.9 20.9 .250  96
2020 03 28 09  12 46 55.255   +15 27 12.17  .86543 1.8380 160.9 20.9 .265  93
2020 03 28 10  12 46 53.183   +15 28 15.86  .86547 1.8380 160.9 20.9 .280  90
2020 03 28 11  12 46 51.111   +15 29 19.51  .86550 1.8379 160.9 20.9 .296  87
2020 03 28 12  12 46 49.037   +15 30 23.11  .86553 1.8379 160.8 20.9 .314  84
2020 03 28 13  12 46 46.963   +15 31 26.68  .86556 1.8379 160.8 20.9 .332  82
2020 03 28 14  12 46 44.889   +15 32 30.22  .86560 1.8379 160.8 20.9 .351  80
2020 03 28 15  12 46 42.813   +15 33 33.71  .86563 1.8379 160.8 20.9 .370  78
2020 03 28 16  12 46 40.737   +15 34 37.16  .86566 1.8379 160.7 20.9 .391  76
2020 03 28 17  12 46 38.660   +15 35 40.57  .86570 1.8378 160.7 20.9 .412  75
2020 03 28 18  12 46 36.583   +15 36 43.94  .86573 1.8378 160.7 20.9 .433  73
2020 03 28 19  12 46 34.505   +15 37 47.27  .86577 1.8378 160.7 20.9 .456  72
2020 03 28 20  12 46 32.426   +15 38 50.57  .86580 1.8378 160.6 20.9 .479  70
2020 03 28 21  12 46 30.346   +15 39 53.82  .86584 1.8378 160.6 20.9 .503  69
2020 03 28 22  12 46 28.266   +15 40 57.03  .86588 1.8378 160.6 20.9 .527  68
2020 03 28 23  12 46 26.185   +15 42 00.20  .86591 1.8377 160.6 20.9 .552  67
2020 03 29 00  12 46 24.104   +15 43 03.33  .86595 1.8377 160.5 20.9 .577  66
2020 03 29 01  12 46 22.022   +15 44 06.42  .86599 1.8377 160.5 20.9 .603  65
2020 03 29 02  12 46 19.939   +15 45 09.47  .86603 1.8377 160.5 20.9 .630  64
2020 03 29 03  12 46 17.856   +15 46 12.48  .86607 1.8377 160.5 20.9 .657  63
2020 03 29 04  12 46 15.772   +15 47 15.45  .86610 1.8377 160.5 20.9 .685  62
2020 03 29 05  12 46 13.688   +15 48 18.37  .86614 1.8376 160.4 20.9 .713  62
2020 03 29 06  12 46 11.603   +15 49 21.26  .86618 1.8376 160.4 20.9 .742  61
2020 03 29 07  12 46 09.517   +15 50 24.10  .86622 1.8376 160.4 20.9 .771  60
2020 03 29 08  12 46 07.431   +15 51 26.90  .86627 1.8376 160.4 20.9 .801  60
2020 03 29 09  12 46 05.345   +15 52 29.66  .86631 1.8376 160.3 20.9 .831  59
2020 03 29 10  12 46 03.257   +15 53 32.38  .86635 1.8375 160.3 20.9 .862  58
2020 03 29 11  12 46 01.170   +15 54 35.06  .86639 1.8375 160.3 20.9 .893  58
2020 03 29 12  12 45 59.081   +15 55 37.69  .86643 1.8375 160.2 20.9 .925  57
2020 03 29 13  12 45 56.992   +15 56 40.29  .86648 1.8375 160.2 20.9 .958  57
2020 03 29 14  12 45 54.903   +15 57 42.84  .86652 1.8375 160.2 20.9 0.99  56
2020 03 29 15  12 45 52.813   +15 58 45.35  .86656 1.8375 160.2 20.9 1.02  56
2020 03 29 16  12 45 50.723   +15 59 47.81  .86661 1.8374 160.1 20.9 1.06  55
2020 03 29 17  12 45 48.632   +16 00 50.23  .86665 1.8374 160.1 20.9 1.09  55
2020 03 29 18  12 45 46.541   +16 01 52.62  .86670 1.8374 160.1 20.9 1.13  54
2020 03 29 19  12 45 44.449   +16 02 54.95  .86675 1.8374 160.1 20.9 1.16  54
2020 03 29 20  12 45 42.357   +16 03 57.25  .86679 1.8374 160.0 20.9 1.20  53
2020 03 29 21  12 45 40.264   +16 04 59.50  .86684 1.8374 160.0 20.9 1.24  53
2020 03 29 22  12 45 38.171   +16 06 01.71  .86688 1.8373 160.0 20.9 1.27  52
2020 03 29 23  12 45 36.077   +16 07 03.88  .86693 1.8373 160.0 20.9 1.31  52
2020 03 30 00  12 45 33.983   +16 08 06.00  .86698 1.8373 159.9 20.9 1.35  52
2020 03 30 01  12 45 31.888   +16 09 08.08  .86703 1.8373 159.9 20.9 1.39  51
2020 03 30 02  12 45 29.793   +16 10 10.11  .86708 1.8373 159.9 20.9 1.43  51
2020 03 30 03  12 45 27.698   +16 11 12.10  .86713 1.8373 159.9 20.9 1.47  51
2020 03 30 04  12 45 25.602   +16 12 14.05  .86718 1.8372 159.8 20.9 1.51  50